Flag for U.S.A. Weather past 2 weeks in Pittsburgh, Pennsylvania, U.S.A.

48 °F


Feels Like: 46 °F
Forecast: 47 / 59 °F
Wind: 5 mph from Northwest

Location: Allegheny County Airport

Current Time: Nov 28, 2015 at 3:16:34 PM

Latest Report: Nov 28, 2015 at 1:53 PM

Visibility: 2 mi

Pressure: 30.20 "Hg

Humidity: 89%

Dew point: 45 °F

Location of PittsburghLocation

Historic Weather in Pittsburgh — Graph


Pittsburgh temperature yesterday

Maximum temperature yesterday: 66 °F (at 1:53 PM)
Minimum temperature yesterday: 52 °F (at 2:53 AM)
Average temperature yesterday: 59 °F

Past Weeks' High & Low Weather Summary

High66 °F (Nov 17, 12:53 PM)93% (Nov 28, 6:53 AM)30.66 "Hg (Nov 28, 6:53 AM)
Low24 °F (Nov 23, 2:53 AM)11% (Nov 20, 2:53 PM)29.72 "Hg (Nov 21, 7:53 PM)
Average48 °F47%30.25 "Hg
* Reported Nov 13 1:53 PM — Nov 28 1:53 PM, Pittsburgh, Weather by CustomWeather, © 2015

Note: Actual official high and low records may vary slightly from our data, if they occured in-between our weather recording intervals... More about our weather records


Pittsburgh weather history for previous 24 hours

Time TempWeatherWind HumidityBarometerVisibility
1:53 PM
Sat, Nov 28
48 °FFog.5 mph89%30.20 "Hg2 mi
12:53 PM48 °FFog.6 mph89%30.21 "Hg2 mi
12:02 PM49 °FFog.6 mph90%30.20 "Hg1 mi
11:53 AM49 °FFog.7 mph90%30.22 "Hg2 mi
10:53 AM49 °FFog.6 mph93%30.23 "Hg1 mi
10:02 AM49 °FFog.6 mph93%30.22 "Hg1 mi
9:53 AM49 °FFog.6 mph93%30.22 "Hg1 mi
8:53 AM49 °FLight rain. Fog.9 mph90%30.23 "Hg2 mi
7:53 AM49 °FLight rain. Fog.7 mph93%30.22 "Hg2 mi
7:04 AM53 °FLight rain. Fog.9 mph89%30.20 "Hg1 mi
6:53 AM55 °FLight rain. Fog.3 mph93%30.21 "Hg2 mi
5:53 AM56 °FMostly cloudy.9 mph87%30.20 "Hg10 mi
4:53 AM56 °FMostly cloudy.8 mph84%30.19 "Hg10 mi
3:53 AM56 °FMostly cloudy.7 mph84%30.21 "Hg10 mi
2:53 AM58 °FOvercast.7 mph75%30.23 "Hg10 mi
1:53 AM60 °FLight rain. Mostly cloudy.8 mph67%30.23 "Hg10 mi
12:53 AM61 °FMostly cloudy.9 mph62%30.23 "Hg10 mi
11:53 PM
Fri, Nov 27
61 °FMostly cloudy.5 mph60%30.24 "Hg10 mi
10:53 PM62 °FMostly cloudy.7 mph58%30.25 "Hg10 mi
9:53 PM62 °FPassing clouds.9 mph58%30.27 "Hg10 mi
8:53 PM62 °FPassing clouds.10 mph58%30.29 "Hg10 mi
7:53 PM63 °FPassing clouds.8 mph56%30.30 "Hg10 mi
6:53 PM63 °FOvercast.7 mph56%30.30 "Hg10 mi
5:53 PM63 °FMostly cloudy.7 mph56%30.30 "Hg10 mi
4:53 PM63 °FMore clouds than sun.6 mph56%30.30 "Hg10 mi
3:53 PM64 °FSunny.13 mph54%30.30 "Hg10 mi
Weather by CustomWeather, © 2015

See weather overviewHow to use our weather pages